Wind_Speed
84 82 73 83 89 86 87 88 86 84 84 80 74 72 70 69 68 67 66 64 63 61 60 58 57 55 54 53 53 52 51 50 48 46 44 43 42 41 40 39 37 35 33 33 35 34 36 44 48 46 43 44 45 40 37 39 39 39 38 37 36 35 34 34 32 28 26 24 23 23 23 23 23 23 22 23 21 19 19 19 17 16 15 14 13 12 11 10
84 82 64 73 86 86 87 87 87 85 84 82 77 73 69 69 68 67 66 65 64 62 61 59 58 57 55 54 53 52 52 51 49 47 44 44 43 42 40 40 38 35 33 33 34 33 35 44 48 44 42 44 43 40 39 41 41 39 39 37 36 36 36 36 32 29 28 26 25 24 24 24 24 23 23 23 21 20 20 18 16 15 14 14 13 12 10 9
83 85 64 62 77 83 84 84 86 86 85 83 79 75 70 68 68 68 67 66 64 63 62 61 59 58 56 55 54 53 52 51 50 46 44 44 44 42 41 40 39 36 35 34 33 33 35 43 48 43 39 42 41 37 39 41 41 40 39 37 35 37 38 37 33 31 31 29 27 27 26 25 24 24 24 22 22 21 19 18 17 15 15 13 12 11 10 9
83 90 75 58 67 78 78 78 83 87 86 84 80 76 71 68 68 68 67 66 65 64 62 61 60 58 57 56 55 54 53 51 49 46 44 44 44 43 41 41 40 38 37 34 33 34 36 41 47 44 38 41 42 38 39 41 41 41 40 38 38 40 40 38 35 34 33 32 31 29 28 26 25 25 24 22 22 21 19 18 18 16 14 12 11 10 10 9
86 91 86 65 61 72 77 75 79 85 85 84 81 76 71 68 67 67 67 66 65 64 63 61 60 58 57 57 56 54 53 51 48 47 47 45 44 44 42 43 42 41 39 36 34 35 36 39 45 45 39 40 43 40 40 42 42 42 42 41 42 43 41 39 36 35 35 34 32 31 29 28 28 27 25 24 23 21 20 19 18 16 14 13 12 11 11 10
91 88 89 78 65 66 76 77 76 81 81 82 81 77 72 68 67 67 66 66 65 63 63 61 59 58 57 57 56 55 54 51 48 48 48 45 45 45 43 43 44 44 41 37 35 35 36 37 42 46 43 40 42 42 42 44 44 43 43 43 45 44 41 39 37 36 36 35 34 32 30 30 30 29 28 26 24 23 21 19 18 17 15 15 14 14 14 13
94 91 87 85 75 67 72 76 74 76 76 78 81 79 75 69 66 66 65 64 64 63 61 60 58 57 57 57 56 55 53 51 48 48 47 45 45 45 44 44 45 45 43 39 36 34 34 36 40 46 45 42 43 43 44 46 46 44 43 46 47 45 42 40 38 37 37 36 35 34 33 32 32 31 29 27 26 25 22 20 19 18 17 17 17 16 15 14
91 95 89 85 81 70 68 74 73 72 73 75 79 78 75 71 67 65 64 63 63 62 60 59 57 57 57 55 55 54 51 50 48 47 47 45 44 44 45 44 45 45 43 40 37 33 34 37 40 43 42 42 43 44 46 49 49 46 45 48 49 47 44 42 41 39 38 37 37 36 35 34 34 33 31 30 28 26 24 22 21 20 19 19 19 17 16 15
86 96 94 84 81 75 69 72 74 73 73 74 75 77 75 71 68 65 63 63 62 61 59 58 57 56 56 54 54 53 49 49 48 46 46 45 44 44 45 45 44 44 44 41 38 33 34 38 41 41 39 40 42 43 46 50 52 49 48 50 50 48 46 46 44 41 40 39 38 38 37 35 34 34 33 31 29 27 25 24 23 21 21 21 20 18 16 15
84 93 98 85 78 78 74 70 70 71 72 74 73 75 76 72 68 66 63 62 62 61 59 58 57 57 56 55 54 51 48 49 48 46 46 45 44 44 45 45 43 44 44 42 39 35 35 38 41 41 39 38 39 41 45 50 53 52 51 52 51 50 48 47 45 43 42 41 40 39 38 37 35 35 34 32 30 29 28 26 25 23 23 22 20 19 17 15
85 88 97 91 78 74 75 71 69 68 67 70 72 71 75 75 71 67 64 62 61 60 59 58 57 57 56 54 52 48 46 47 47 46 46 45 45 44 45 44 42 43 43 42 40 37 37 39 40 39 39 37 35 38 43 48 51 53 54 54 52 51 49 48 46 44 43 42 41 40 39 39 36 35 34 33 32 31 30 28 26 24 24 24 22 20 17 16
90 87 93 96 86 71 70 69 69 71 67 65 68 69 73 77 73 68 65 62 61 60 60 59 58 57 56 54 50 47 46 45 45 45 45 45 45 44 44 43 41 41 42 42 41 39 38 39 40 38 38 37 34 35 40 45 51 54 56 56 54 52 51 49 47 45 45 43 42 40 41 41 36 34 35 35 35 33 30 28 27 25 25 25 23 20 18 18
92 89 91 95 93 78 69 67 67 71 71 66 66 69 71 75 73 68 65 62 61 61 60 59 58 58 56 53 50 48 47 46 45 45 44 44 44 43 43 42 40 39 40 42 41 40 39 39 39 37 37 35 32 33 36 44 53 56 57 58 55 53 52 51 49 47 46 44 43 43 43 41 36 36 38 38 36 33 31 29 27 26 26 25 23 20 19 19
93 91 91 93 95 86 71 66 67 69 69 68 69 69 69 72 72 68 65 63 62 61 60 60 60 59 56 52 49 48 47 46 45 45 45 44 42 42 42 42 40 39 40 41 41 40 39 39 38 37 36 33 30 29 30 38 52 58 58 59 57 55 54 52 51 48 47 46 45 44 43 40 38 40 40 38 37 34 31 30 28 27 26 25 23 21 20 20
96 93 92 93 95 91 75 65 70 70 66 66 70 71 69 71 70 67 66 63 62 62 59 60 61 59 56 52 50 49 47 45 43 44 45 44 42 42 42 41 41 40 40 42 42 40 39 38 36 35 35 33 30 27 25 30 45 56 58 60 59 56 55 54 52 49 48 48 47 46 43 40 40 42 40 38 37 34 32 31 29 28 27 25 24 23 22 21
100 96 92 93 94 92 77 64 69 73 67 65 68 71 71 71 70 68 67 64 63 63 59 59 60 59 55 53 51 49 48 45 43 43 44 43 42 42 41 41 41 40 41 42 42 41 40 37 35 33 34 35 32 28 25 26 36 51 57 60 60 57 55 54 52 51 49 49 48 47 44 41 42 42 40 38 37 34 33 31 30 29 28 26 25 25 23 22
101 98 92 92 90 89 79 65 67 70 67 67 67 68 70 70 70 69 68 67 66 64 60 58 59 58 55 53 51 48 47 44 43 43 43 43 42 41 40 40 40 40 40 42 43 42 41 38 35 34 33 34 34 29 28 26 29 45 57 60 61 59 56 53 52 51 50 50 48 46 44 42 43 43 40 38 37 35 33 32 32 31 29 27 27 26 24 23
100 100 97 93 85 85 83 69 66 68 67 70 71 70 70 71 71 71 70 69 68 65 62 61 59 58 56 53 49 46 45 44 43 44 44 43 42 42 41 40 40 40 39 40 42 42 41 40 37 35 32 32 33 30 29 26 26 41 57 60 61 61 58 54 51 50 49 48 47 46 44 43 43 42 40 38 37 36 35 35 34 32 30 28 27 26 25 24
97 98 98 97 87 84 84 72 68 70 68 69 71 73 74 74 73 72 72 72 70 67 64 63 60 57 54 48 45 45 44 44 45 45 44 43 43 42 41 40 41 40 40 40 40 41 41 40 38 35 31 30 31 31 28 23 24 40 57 61 62 61 59 55 52 50 50 49 48 46 43 42 42 41 40 39 38 38 38 37 36 33 30 29 28 27 26 24
93 95 94 97 91 86 85 75 71 75 73 69 70 78 79 77 78 76 74 70 65 62 58 56 56 56 52 48 47 48 46 47 47 45 44 43 42 42 41 40 40 39 38 38 38 39 39 38 36 33 31 30 31 30 27 22 24 38 54 62 63 62 59 55 52 51 52 51 48 45 42 41 42 43 42 42 42 41 40 38 35 33 31 30 29 28 27 25
88 94 93 94 91 87 85 77 72 76 76 72 72 76 72 71 75 75 74 69 62 60 57 53 53 54 53 50 49 47 47 49 48 46 45 44 41 41 41 40 40 38 36 37 37 38 38 37 35 33 33 33 31 29 26 23 24 31 45 59 65 63 60 57 54 53 52 49 46 44 43 43 43 44 44 45 45 43 40 37 35 34 33 32 30 29 28 27
85 93 93 92 89 86 86 79 72 71 73 75 74 72 67 66 67 68 71 71 67 64 62 58 55 52 51 49 47 46 47 49 48 47 46 44 42 40 41 40 39 37 36 36 37 37 38 36 35 35 36 35 33 31 28 26 25 27 36 51 63 65 62 59 57 55 52 49 46 45 45 45 45 46 47 48 47 43 40 37 36 36 35 33 31 30 29 28
83 92 92 90 86 85 87 81 73 71 73 74 71 69 68 67 65 64 66 69 70 69 65 62 60 56 52 49 47 47 47 47 45 44 44 43 41 40 41 40 39 38 37 36 35 35 35 34 35 37 37 35 35 33 30 28 27 27 31 43 57 65 64 62 59 55 52 49 47 47 47 47 47 47 49 49 47 43 41 39 38 38 37 33 32 32 31 29
82 91 92 88 83 85 87 80 73 71 70 69 67 66 68 67 67 66 65 66 68 68 65 63 62 60 56 51 48 47 47 46 45 43 42 41 40 41 40 40 39 37 36 35 35 34 33 32 33 35 36 35 36 35 32 29 28 29 31 39 51 62 66 64 60 55 51 49 48 48 49 49 48 48 49 49 47 43 41 41 39 39 37 34 34 33 31 30
80 90 94 87 81 85 87 80 75 70 67 70 71 69 70 69 68 68 67 68 68 67 66 67 66 63 58 53 51 50 48 47 46 44 43 41 40 41 40 39 38 36 35 35 35 34 33 32 33 34 34 35 35 34 33 31 30 30 32 37 46 58 66 65 60 55 50 48 47 47 50 51 48 48 48 47 48 45 42 43 41 38 38 36 35 33 31 31
79 90 94 85 77 81 83 79 77 73 68 72 74 71 71 71 71 71 70 70 70 69 68 68 67 64 59 56 54 53 51 49 48 46 45 43 41 40 39 38 36 35 35 35 34 33 32 32 32 33 33 33 34 34 33 32 31 30 32 37 43 53 64 65 59 54 51 49 48 47 51 53 49 47 47 46 48 47 44 44 42 39 38 37 35 33 33 32
79 90 92 84 77 77 78 76 77 77 73 72 74 72 72 72 73 74 73 72 72 71 69 67 65 63 60 57 56 55 53 51 50 49 47 45 43 41 39 38 36 35 35 34 34 32 32 32 32 33 33 33 33 32 33 32 31 30 32 37 43 49 60 64 58 53 52 51 50 48 51 54 52 47 46 47 48 48 46 44 42 39 38 36 35 34 34 33
79 89 89 84 76 70 73 76 73 74 75 73 74 74 72 73 75 76 76 76 75 71 70 68 64 62 60 58 57 56 52 50 51 51 48 46 45 42 40 39 37 36 35 34 32 31 32 32 32 32 32 32 31 31 32 31 30 31 33 39 44 48 57 62 59 54 52 52 53 52 51 54 54 48 44 46 47 48 46 44 42 39 37 37 36 36 35 34
78 87 88 83 76 67 70 75 68 68 74 75 77 78 75 75 78 78 78 78 75 70 69 68 65 63 62 59 57 55 52 50 50 49 48 48 46 42 40 38 37 37 36 34 32 31 32 32 31 31 30 30 29 31 32 31 31 32 35 40 44 48 55 59 59 55 52 54 56 54 53 55 56 50 44 46 46 46 45 42 41 39 38 39 37 36 35 35
74 83 88 86 80 72 73 78 71 67 70 72 77 79 79 80 81 80 80 80 76 71 69 68 66 64 63 60 58 55 53 52 50 48 47 46 43 41 39 37 36 36 35 34 34 33 32 32 32 31 31 30 31 32 32 32 33 35 37 41 44 48 53 57 59 55 54 58 58 55 54 56 58 54 47 46 46 44 43 42 42 40 39 39 37 35 35 35
71 79 85 84 78 71 73 80 74 66 67 71 76 80 81 83 82 82 83 79 74 73 71 69 67 65 62 60 57 55 54 52 51 50 48 45 42 41 39 38 37 36 34 34 34 34 33 34 34 33 32 32 33 33 34 34 36 37 40 42 44 49 53 55 58 57 57 61 58 55 55 57 60 57 49 47 46 44 43 42 41 40 39 39 37 35 35 35
73 78 81 78 74 70 72 76 71 63 64 69 76 82 84 83 82 84 83 78 76 75 70 66 66 64 60 56 54 54 54 52 51 50 48 45 43 41 40 38 37 36 34 33 32 33 33 34 34 34 34 34 34 35 35 36 38 40 42 43 46 50 53 54 57 59 61 62 58 55 55 58 63 58 49 47 47 43 43 41 39 39 39 38 37 36 36 37
73 79 80 74 72 73 74 75 72 66 65 70 76 82 84 84 84 84 81 79 76 72 65 61 61 60 58 57 55 54 52 50 51 51 48 46 44 43 41 39 37 35 33 32 32 33 34 35 35 35 35 35 36 36 37 37 39 42 44 46 49 51 53 55 57 58 60 61 59 56 56 59 63 58 49 47 46 43 42 41 39 38 38 38 38 37 37 37
74 80 80 73 70 75 78 77 72 68 69 74 78 81 84 85 84 81 77 76 72 67 64 62 60 61 60 59 56 54 53 51 51 50 49 48 46 44 42 39 37 35 33 32 33 32 33 33 33 35 36 37 37 37 37 37 37 40 42 45 48 50 51 53 55 56 58 59 58 56 57 59 62 58 49 45 45 44 42 40 38 37 37 38 38 37 37 36
72 78 77 70 68 74 78 75 71 69 73 78 81 83 85 83 81 79 75 73 70 68 66 63 62 64 62 58 56 55 55 54 52 51 49 47 44 42 40 38 37 36 36 35 34 34 33 33 32 34 35 36 38 38 38 39 39 40 42 44 48 49 50 51 53 55 56 58 59 59 59 60 60 57 50 44 44 45 43 40 38 38 38 38 38 37 36 36
70 73 71 66 67 73 75 71 70 71 73 79 82 82 79 74 73 74 72 69 68 68 67 66 66 65 62 59 58 57 55 53 52 52 50 46 44 42 40 39 38 36 35 34 34 34 34 34 34 35 36 37 38 38 39 40 41 42 43 45 47 49 51 51 52 54 56 58 60 61 61 60 58 56 51 46 44 44 43 41 39 38 38 38 37 37 36 36
71 70 66 64 67 71 69 67 70 71 73 79 79 73 70 71 72 72 71 70 68 68 68 69 69 66 63 61 60 58 56 54 54 52 49 47 45 42 40 39 38 36 34 33 33 33 33 34 34 35 36 37 37 38 39 40 42 43 44 44 43 45 48 50 52 54 56 58 60 61 61 59 57 56 52 46 44 42 42 41 40 39 38 38 37 37 36 36
68 67 64 62 66 69 66 66 68 69 73 79 74 70 73 77 77 75 73 72 69 69 69 68 67 64 63 61 59 57 56 56 55 53 50 48 44 41 40 40 38 36 35 34 34 34 33 34 35 35 36 36 36 37 38 39 41 42 42 42 42 43 45 48 51 54 55 58 60 60 61 60 58 55 50 44 42 41 41 41 40 38 38 38 37 37 37 36
65 65 62 61 66 69 67 67 68 69 75 77 73 74 78 78 76 75 73 71 69 69 69 67 63 61 61 59 57 57 57 56 55 52 51 48 45 42 41 40 40 39 38 37 37 36 35 36 36 35 35 35 36 37 37 38 39 40 41 42 43 43 44 46 48 51 53 55 58 60 61 61 59 55 48 43 40 39 38 39 39 38 38 38 37 37 37 37
65 66 66 66 70 71 68 66 68 70 72 69 68 72 75 74 75 76 74 71 69 68 67 65 62 61 60 59 57 56 56 56 55 52 50 48 46 45 43 42 41 40 39 39 39 38 37 37 37 36 35 36 37 37 36 37 37 38 39 40 41 41 42 43 45 48 51 53 56 58 60 60 58 54 48 42 39 36 35 36 38 38 37 38 38 38 38 38
70 71 72 72 72 72 72 70 68 66 65 65 68 72 75 76 76 75 73 71 69 67 64 63 62 60 59 58 58 56 55 55 53 52 50 47 46 45 44 43 42 41 41 41 41 41 40 39 38 37 36 35 35 34 34 35 36 36 38 38 37 38 39 41 43 45 48 51 54 57 58 58 56 53 49 44 39 36 35 34 35 37 38 38 38 38 38 39
75 77 76 74 73 72 73 70 64 61 63 67 70 72 77 78 76 74 72 71 70 68 65 63 62 61 59 58 56 55 55 54 53 51 49 46 45 44 44 44 43 42 41 42 42 40 39 38 38 37 35 34 33 33 33 34 35 36 38 37 38 39 39 40 42 43 45 49 51 54 57 56 53 51 50 46 42 38 36 35 35 36 37 37 38 38 38 38
76 76 74 72 71 71 70 67 64 64 66 68 71 74 78 78 76 75 73 71 71 69 66 65 63 62 60 58 57 55 53 53 52 51 49 47 47 46 45 45 44 42 41 41 41 40 37 36 36 35 35 35 34 33 33 34 35 37 38 38 39 41 40 40 41 41 44 46 47 51 55 53 51 49 48 46 43 40 39 37 35 35 35 36 37 37 37 37
74 73 72 70 68 70 70 66 65 65 65 69 75 77 78 77 76 75 73 71 71 69 67 65 63 62 60 59 57 55 52 52 52 51 49 48 47 47 46 45 44 42 41 40 39 38 37 36 35 35 36 37 37 37 37 37 38 39 39 40 41 40 40 41 41 42 45 45 45 49 50 49 49 48 46 45 44 43 41 39 36 35 35 35 36 36 37 36
75 73 73 70 67 68 68 66 64 63 65 71 76 76 77 78 76 74 73 72 70 68 67 65 64 63 62 60 58 56 53 51 49 49 49 47 46 45 45 43 42 41 39 37 36 36 35 34 34 35 36 37 36 35 34 34 37 38 37 37 38 38 40 40 41 44 44 42 44 46 43 42 45 45 45 45 46 45 43 40 38 36 36 36 36 37 37 38
77 78 78 75 71 69 67 66 64 64 67 72 76 78 78 79 77 75 74 72 71 69 67 65 64 64 63 62 59 57 54 52 50 47 46 46 46 45 44 43 42 41 39 38 37 37 36 35 35 34 34 34 32 30 28 30 33 34 32 34 36 37 39 40 43 43 38 39 42 39 35 36 40 41 43 44 45 45 44 42 39 38 37 38 38 38 39 40
79 80 79 75 74 73 71 69 66 64 66 70 74 77 78 78 78 77 76 74 72 70 67 66 65 65 64 64 62 58 55 54 52 49 46 45 44 43 44 44 43 42 42 41 41 40 39 39 37 35 35 35 34 33 33 34 36 34 34 36 36 38 39 41 44 41 37 42 41 31 28 33 35 38 41 42 44 44 43 41 41 41 41 40 40 40 41 41
80 79 76 72 69 67 66 65 61 58 61 67 73 75 77 79 79 77 76 74 72 70 68 67 66 65 64 63 62 60 56 54 53 51 50 49 47 45 44 46 45 44 44 43 43 43 42 41 39 37 37 38 38 38 38 39 40 39 40 40 39 40 41 42 43 41 41 44 38 28 31 36 36 38 40 41 43 45 43 43 44 45 44 42 42 43 42 42
78 77 75 74 68 61 59 59 57 57 61 67 72 74 75 76 76 76 76 74 72 71 70 68 67 66 64 62 61 60 59 57 56 55 54 52 51 48 47 47 47 46 45 45 45 44 44 43 41 40 41 41 40 40 39 39 40 41 42 43 43 44 43 42 41 39 41 42 35 32 38 38 36 40 40 40 44 46 47 47 46 46 45 43 45 45 44 43
73 72 71 72 69 63 62 63 62 63 66 69 71 73 73 73 73 74 74 72 71 70 70 69 67 65 64 62 60 58 57 55 54 54 53 52 51 49 48 47 45 44 44 45 45 45 44 44 44 43 43 43 42 41 40 40 41 42 44 45 45 45 43 41 38 37 41 40 34 37 40 35 32 38 40 41 45 47 49 49 48 47 45 45 47 47 45 45
67 62 60 61 63 63 63 62 61 63 67 68 68 70 72 72 71 70 70 69 67 66 67 68 66 64 62 61 59 56 53 50 48 47 45 44 43 42 42 43 42 41 41 41 43 43 43 44 44 43 44 44 42 41 40 40 41 42 44 44 44 44 42 40 39 40 43 41 37 40 38 29 27 35 39 41 45 47 48 48 47 46 45 46 47 47 46 45
63 57 54 53 56 59 61 61 61 62 61 59 60 66 70 70 70 69 68 66 65 63 63 63 62 61 60 59 57 54 49 45 43 41 39 38 36 35 35 36 38 39 38 38 40 41 42 44 44 44 45 44 42 42 41 41 43 45 43 41 40 41 41 41 42 41 42 41 41 39 33 27 31 36 37 40 44 46 46 45 45 45 44 45 47 46 46 46
Wind_Direction
211 212 216 215 213 216 217 215 214 214 215 215 213 212 212 212 212 213 213 215 216 215 214 214 215 214 214 215 216 216 216 218 219 219 219 219 219 217 213 212 215 219 221 224 227 229 227 219 216 215 215 220 220 213 207 206 208 207 206 205 204 204 201 202 198 192 196 198 192 190 190 185 183 182 182 184 180 174 175 173 173 174 171 168 170 168 164 164
211 208 211 216 214 215 218 218 216 215 215 215 214 213 213 213 212 212 213 214 215 215 215 215 215 215 214 214 215 216 216 217 218 218 219 219 219 218 214 213 215 218 221 224 227 230 225 218 216 215 215 217 215 210 206 206 207 206 207 206 205 204 202 203 199 193 197 198 195 194 194 191 188 186 187 187 182 181 181 176 177 180 179 178 177 174 174 172
211 208 207 213 214 215 218 220 219 217 216 216 216 215 213 213 213 212 212 213 214 215 215 215 216 216 215 215 215 216 217 217 217 217 218 219 219 219 216 213 214 217 221 223 226 228 223 216 214 214 214 212 212 212 207 207 206 205 206 206 207 207 205 203 199 195 198 198 198 199 198 195 193 192 193 191 188 186 185 181 183 187 189 189 186 185 187 185
208 210 208 208 213 214 216 219 220 219 218 216 216 216 214 214 214 213 212 212 214 215 215 215 216 216 215 215 215 215 217 217 216 218 218 218 218 218 216 214 213 216 220 223 225 227 223 214 210 213 215 212 213 213 208 208 207 204 204 204 207 209 207 204 199 196 200 200 201 202 201 200 200 199 199 197 195 192 190 190 191 193 197 199 199 201 204 202
207 208 208 206 210 213 214 216 219 220 219 218 217 217 215 214 215 214 213 212 213 214 215 216 216 217 216 215 215 214 216 217 217 219 218 216 217 218 216 213 212 215 218 222 225 227 225 217 211 213 216 214 215 212 207 207 207 205 203 203 208 209 207 205 200 198 201 202 204 205 204 204 206 205 204 203 202 199 197 199 198 199 204 209 212 215 218 218
210 207 208 207 207 209 213 215 217 220 220 220 218 218 217 215 215 215 213 213 213 214 215 216 217 217 217 216 215 214 215 216 217 220 220 217 217 217 216 214 212 214 217 221 224 225 225 222 216 216 218 216 216 214 207 206 206 205 202 204 209 209 207 206 203 201 203 205 206 208 207 209 212 211 209 207 207 207 204 205 206 205 208 216 218 220 225 226
209 208 207 208 207 205 210 213 215 218 220 220 219 218 217 215 215 215 214 213 213 214 215 216 217 218 217 216 216 214 214 215 217 220 221 219 218 217 217 215 213 213 216 219 223 224 223 225 222 221 222 218 216 217 212 207 206 204 202 205 209 208 206 205 204 203 205 207 207 209 210 212 215 215 214 213 212 213 210 209 213 212 214 221 225 226 230 233
205 208 207 207 208 205 206 210 212 214 217 218 218 217 217 216 215 215 214 214 214 214 215 217 218 219 218 217 217 215 215 217 217 219 220 220 219 218 218 217 213 213 215 218 222 222 220 225 227 225 225 219 216 219 217 211 206 203 203 207 209 208 204 204 204 205 208 209 209 209 211 214 217 218 218 217 217 217 215 214 216 219 220 223 227 230 233 236
202 206 208 205 206 208 205 206 209 212 216 217 217 217 216 216 215 214 214 214 214 215 215 217 218 219 219 218 217 215 216 218 218 218 220 221 219 218 219 218 214 212 214 216 220 220 219 225 229 228 227 221 218 221 221 215 207 201 203 208 209 208 203 203 204 206 209 210 209 210 212 214 217 221 221 221 221 220 220 220 220 223 227 228 229 233 234 235
203 203 207 205 202 206 207 206 206 208 214 217 216 216 216 215 215 214 214 213 213 214 215 217 218 218 219 218 217 216 217 219 218 217 219 220 220 219 219 219 215 213 213 215 218 218 219 225 229 230 230 228 225 224 222 218 209 200 202 208 209 208 204 203 206 207 210 210 210 210 213 215 216 221 223 223 224 223 222 223 222 223 229 232 231 233 233 232
206 202 205 205 202 202 205 206 207 207 211 214 214 215 215 214 214 213 213 212 212 214 215 216 217 218 219 219 217 217 218 219 219 217 218 219 220 219 220 220 217 214 213 213 216 218 219 224 229 230 230 232 233 227 223 222 213 202 202 206 208 209 205 204 208 209 211 212 211 210 213 215 216 220 224 224 225 225 222 222 223 223 227 231 230 231 231 229
208 205 205 206 206 205 201 202 207 209 210 210 209 212 214 213 212 212 212 212 211 212 215 216 216 217 218 218 217 218 218 218 219 217 218 219 219 219 220 219 217 215 213 212 215 217 219 224 228 228 228 231 233 228 226 224 215 206 204 204 207 208 206 205 209 210 212 214 213 211 213 215 216 219 223 224 225 225 223 222 223 223 227 230 230 229 228 227
208 207 205 205 209 208 200 198 203 205 208 208 205 207 210 211 210 211 211 211 210 211 214 215 216 216 217 217 217 220 219 218 218 217 218 220 220 220 220 220 217 215 213 211 213 216 218 223 225 225 224 227 232 229 227 224 216 210 208 204 205 207 205 206 209 211 212 214 214 212 214 216 215 219 223 224 225 224 223 222 222 223 226 229 230 228 227 227
206 206 205 205 209 210 202 199 200 202 205 206 205 205 206 208 208 209 210 210 209 210 213 215 216 215 215 215 217 219 219 218 218 217 218 219 219 219 220 220 217 214 213 211 213 215 217 220 221 223 223 225 231 231 229 226 217 212 210 206 204 206 205 207 210 211 212 214 214 214 216 216 216 220 223 224 226 225 223 222 221 222 224 227 229 228 227 227
206 204 205 205 208 210 205 201 200 202 204 203 203 205 205 206 205 206 209 208 208 208 210 214 215 215 214 214 216 217 218 218 217 218 219 219 218 218 218 219 217 214 212 211 213 215 217 220 223 227 228 227 232 235 236 233 222 216 213 207 204 206 206 207 210 211 212 214 215 215 216 216 217 221 223 224 227 227 225 223 221 222 223 224 226 227 226 226
206 202 202 202 205 208 205 201 199 199 202 202 201 203 203 203 202 203 206 206 207 207 208 212 214 214 214 214 214 216 218 218 217 217 219 220 220 218 218 219 217 214 212 212 213 215 218 221 224 228 230 231 234 240 242 242 232 222 216 208 204 207 207 208 211 212 213 215 216 216 217 217 219 223 223 224 226 227 227 226 223 222 222 222 223 226 227 226
207 203 201 200 202 207 205 201 198 196 199 201 201 202 201 200 199 200 203 203 205 206 206 210 213 213 213 213 213 215 218 219 219 219 219 220 220 220 220 220 219 215 213 214 215 216 218 220 223 226 230 232 233 239 243 243 240 228 218 209 204 207 209 210 212 213 214 216 217 217 217 218 220 223 223 223 224 226 227 227 226 223 221 221 222 225 228 228
209 205 204 202 203 206 206 202 196 194 197 199 200 201 199 198 197 198 201 201 202 203 203 206 210 211 211 212 213 215 218 219 220 219 219 219 219 219 218 219 219 216 214 215 216 216 218 220 222 224 228 231 231 236 240 240 240 230 219 210 206 207 209 210 212 215 215 217 218 218 218 219 222 225 225 224 225 225 226 227 226 225 223 221 222 225 228 230
209 206 206 206 205 205 207 204 195 192 195 197 199 198 196 196 196 197 199 201 201 202 205 208 210 212 213 213 214 215 216 218 219 218 218 219 219 220 219 219 219 217 215 215 217 217 218 220 222 225 228 230 229 231 234 232 234 229 219 211 207 208 210 210 212 215 216 217 219 219 219 220 223 225 225 226 225 225 225 226 226 225 225 223 223 225 228 230
209 206 205 206 205 204 206 204 195 192 191 193 199 199 195 195 195 195 198 200 203 205 209 214 216 215 213 212 212 214 215 216 218 219 219 219 219 220 221 220 220 219 216 215 217 219 219 220 221 224 226 227 226 227 229 230 231 229 222 214 209 208 210 210 212 215 216 217 219 220 219 220 223 224 224 225 225 225 225 226 226 226 226 226 226 227 228 229
207 205 203 203 203 204 206 203 196 195 191 189 200 205 204 205 204 205 205 203 202 203 206 211 215 215 212 210 210 212 215 218 219 218 218 219 218 219 221 221 221 220 218 216 216 218 219 219 219 221 222 224 226 227 231 234 234 232 227 220 214 210 210 210 212 215 217 217 218 221 220 220 222 223 224 225 225 226 225 226 227 227 226 226 227 228 230 231
206 204 200 200 201 202 205 204 197 197 195 191 199 205 208 213 213 213 213 210 206 203 203 204 208 212 211 210 208 209 213 218 220 219 218 218 218 219 220 221 220 219 217 216 217 218 219 218 218 220 222 224 226 228 230 232 232 234 233 226 219 213 211 212 212 213 216 216 217 220 220 219 221 222 223 225 225 225 226 225 226 228 227 226 227 229 231 232
204 202 198 196 198 200 204 203 197 197 198 197 198 200 204 208 208 206 208 210 209 205 203 202 205 207 207 208 207 208 212 216 219 220 221 220 218 219 219 219 219 217 217 217 217 218 220 220 218 219 222 223 225 227 228 228 229 232 234 231 224 217 214 215 214 213 215 216 216 219 220 219 221 223 224 226 225 225 226 225 225 229 230 228 229 230 231 232
203 201 197 194 194 198 202 202 198 196 197 199 201 199 200 203 201 199 200 203 206 207 203 202 205 206 205 204 206 209 212 216 218 220 222 221 219 219 218 218 218 217 217 217 217 217 218 220 220 220 221 222 224 227 227 228 229 230 232 232 227 220 217 217 216 215 215 216 216 219 221 220 220 223 225 227 228 224 226 227 225 228 231 230 231 232 233 234
201 199 197 195 191 193 199 202 200 196 194 198 202 200 198 198 195 194 196 198 201 205 203 200 202 205 203 200 202 207 209 212 215 217 219 220 220 220 218 218 218 218 217 217 218 216 216 218 219 220 221 223 225 226 228 229 230 230 231 232 229 223 219 219 219 217 216 217 217 220 223 221 220 224 225 227 230 226 225 229 227 227 230 232 232 233 235 236
199 198 198 194 187 187 193 199 200 197 194 197 200 200 196 193 191 190 193 196 199 202 202 201 203 205 203 199 200 203 205 208 211 213 215 216 217 219 219 218 218 219 219 218 219 218 217 218 218 219 220 222 225 226 228 229 230 231 232 232 230 225 221 220 220 219 218 218 219 220 224 222 219 222 224 225 230 229 226 229 230 228 229 233 234 234 236 237
197 198 198 194 188 186 188 194 198 198 196 197 199 198 193 190 190 190 191 195 198 200 201 202 204 206 203 199 200 203 204 206 209 211 212 214 215 216 217 218 216 219 221 220 219 219 219 220 220 220 220 222 225 227 229 231 231 232 232 231 231 228 223 220 220 221 220 218 220 221 224 225 220 219 225 225 227 230 229 229 230 230 231 234 235 236 236 237
196 197 196 192 191 190 187 191 196 197 197 199 199 195 191 189 189 190 191 194 197 198 199 200 203 205 204 200 201 203 205 207 211 212 211 212 214 214 215 216 216 218 220 220 221 221 221 222 222 222 222 223 226 226 228 230 232 232 231 230 230 227 223 222 221 222 222 220 221 221 224 228 223 217 224 228 226 229 231 231 232 231 232 234 235 236 237 238
194 195 193 191 194 196 191 191 194 194 194 199 198 192 188 188 189 190 192 196 197 197 198 199 201 204 204 202 201 202 203 205 210 214 213 213 213 212 214 215 216 218 217 217 220 221 223 223 224 224 224 224 225 227 228 229 230 230 230 231 231 228 225 223 223 222 223 222 221 222 225 230 227 220 222 230 229 229 231 233 235 234 232 233 235 237 238 239
192 195 195 195 198 198 195 195 198 196 196 199 196 190 187 188 190 191 193 196 196 196 197 198 200 204 205 204 203 202 202 204 208 212 214 215 214 213 214 214 216 218 216 216 218 218 220 221 222 223 223 223 222 224 227 227 228 228 228 230 231 230 226 224 225 224 224 224 222 222 226 231 231 223 221 229 232 231 231 232 235 236 235 235 236 237 240 241
189 193 195 197 198 195 194 197 198 199 200 198 191 188 188 189 190 192 194 196 196 196 197 197 198 203 205 205 204 203 203 204 207 211 213 215 215 215 216 216 217 218 216 218 219 219 220 221 221 221 222 223 222 222 223 224 226 227 227 229 229 229 227 225 226 225 225 225 223 222 226 231 233 227 222 226 231 232 232 232 234 237 239 240 239 238 240 242
186 189 191 193 195 193 195 198 198 200 201 194 188 187 189 190 191 193 194 195 197 197 197 196 199 203 204 205 205 204 205 204 207 212 214 215 216 217 220 221 223 224 222 222 222 223 224 225 225 225 224 224 224 223 223 223 225 226 227 228 226 226 227 226 226 227 227 227 225 223 226 230 233 231 224 225 230 232 233 235 235 236 239 242 242 240 240 241
185 187 190 192 195 194 194 197 198 199 197 192 189 189 189 191 193 193 194 196 197 199 199 198 201 204 204 202 203 204 205 206 208 211 212 213 215 216 218 220 223 226 227 228 227 226 226 226 226 227 228 228 227 227 228 228 228 228 227 227 226 226 227 226 227 228 228 229 227 226 228 230 233 235 229 226 231 233 233 235 236 236 238 240 242 242 242 242
185 189 191 194 196 195 194 197 198 198 196 193 192 190 190 193 194 194 196 198 198 198 198 198 199 202 203 201 202 203 204 207 210 213 213 212 213 214 216 219 220 222 224 225 228 230 231 232 231 230 230 230 230 228 228 229 230 231 231 230 229 230 231 230 231 232 231 230 229 229 230 230 233 237 234 229 233 235 235 235 236 237 237 238 241 242 243 244
186 191 193 193 195 195 195 196 197 199 199 195 193 191 192 195 195 196 199 198 198 197 195 196 197 200 201 200 200 202 204 206 208 212 215 215 216 217 217 220 220 222 223 223 225 227 228 232 233 234 234 233 231 228 227 226 227 229 231 230 231 233 234 232 232 233 233 233 232 231 231 231 232 237 237 233 232 236 237 236 235 236 236 237 239 242 244 245
186 191 194 193 193 193 194 196 198 202 203 197 193 194 198 202 202 203 203 201 200 198 194 194 197 199 200 199 199 201 202 205 208 211 214 215 217 218 218 221 222 223 226 227 228 228 227 228 227 228 231 231 230 228 228 228 228 229 231 231 232 233 233 232 233 234 234 235 235 234 233 232 233 236 238 236 233 235 238 239 237 237 237 237 239 241 244 247
186 189 192 192 191 192 193 197 201 205 205 199 196 201 205 205 205 204 203 201 200 199 196 195 197 198 198 199 199 200 201 203 207 211 213 213 215 216 217 221 223 224 225 226 229 229 230 231 229 228 228 229 229 229 229 229 229 232 234 234 234 233 234 234 234 235 236 237 238 237 236 234 234 236 237 238 236 235 237 241 240 239 239 239 239 241 244 248
186 189 194 193 191 193 194 198 203 206 204 199 199 205 205 201 201 202 201 199 198 197 197 198 199 198 199 201 201 202 203 204 205 208 211 214 215 216 217 220 222 222 221 223 226 227 228 230 231 231 231 230 229 229 230 231 232 235 236 237 236 236 237 237 236 237 238 238 240 239 238 236 235 235 236 238 238 236 237 240 242 241 241 241 242 242 245 248
187 190 195 194 192 194 195 198 204 205 202 199 200 202 203 202 201 201 200 199 198 198 197 199 201 201 201 202 204 204 204 206 208 208 211 215 215 215 218 221 221 220 219 220 223 224 225 228 229 229 230 231 230 231 233 234 236 237 237 237 238 239 241 241 240 240 241 241 241 241 240 238 237 236 236 238 238 238 238 239 242 243 242 242 243 244 245 247
189 191 193 193 192 194 195 198 203 202 199 201 204 203 204 204 202 201 200 199 199 199 198 199 201 203 203 203 205 206 207 208 209 210 213 216 217 216 217 220 221 221 220 220 221 222 222 225 227 228 228 229 230 233 235 235 237 239 241 241 242 243 243 243 243 243 243 243 243 243 242 241 238 237 237 238 238 239 239 239 241 243 243 243 243 244 245 247
190 191 190 190 193 195 198 201 202 202 200 203 205 203 202 203 202 201 200 199 199 200 199 199 201 203 206 207 207 207 208 210 211 212 215 217 219 220 219 220 220 220 220 221 222 223 221 222 224 226 227 229 232 234 234 235 236 238 241 245 248 249 249 248 247 247 247 246 246 246 246 244 241 239 239 239 239 239 240 240 242 243 244 244 243 244 245 246
189 190 190 189 193 198 202 205 205 204 203 203 204 202 200 201 201 201 200 200 201 201 199 200 202 203 206 209 212 210 208 210 213 214 216 218 221 222 221 220 220 219 220 222 224 225 225 225 225 226 226 228 231 233 233 234 236 237 239 242 244 246 247 247 248 248 250 249 248 249 250 248 244 241 240 241 241 241 240 240 242 243 244 244 244 244 245 246
189 190 191 190 195 201 204 206 205 204 204 204 202 201 200 200 201 201 201 200 200 201 200 201 203 204 205 208 212 213 211 211 213 216 218 218 218 220 220 220 220 219 220 223 226 226 226 226 227 228 229 228 230 231 231 232 234 236 237 239 241 243 245 247 248 248 249 250 249 250 251 250 247 244 242 242 242 242 241 240 242 243 244 244 244 244 245 246
190 190 191 190 195 202 205 206 207 207 207 204 201 200 200 200 201 201 202 201 201 201 200 200 202 203 206 209 211 213 214 214 214 215 218 220 221 222 221 220 220 221 222 226 230 231 229 227 227 227 228 229 228 229 231 233 235 235 235 236 239 242 244 247 248 248 248 248 247 249 249 250 250 247 245 244 243 243 243 242 242 244 245 245 244 245 245 246
191 190 192 192 195 201 204 206 209 211 209 205 202 201 200 201 201 202 202 202 202 202 201 200 201 203 205 209 211 212 214 216 218 218 218 219 221 224 225 224 223 223 225 227 231 234 235 234 233 232 233 234 234 237 243 247 245 243 242 243 244 246 248 249 250 251 251 251 250 249 249 252 254 252 248 247 246 245 245 244 244 245 246 247 246 246 246 247
193 192 192 192 195 201 204 205 208 211 210 206 203 202 201 201 201 202 203 204 203 203 202 202 203 204 206 208 211 212 212 213 216 218 220 221 221 222 224 225 225 223 223 224 227 230 233 233 233 235 239 242 245 250 256 256 253 251 251 252 252 252 251 251 252 254 257 259 257 254 253 255 256 253 250 249 248 247 246 246 246 247 247 247 248 248 247 247
195 195 196 196 197 201 204 205 206 209 210 209 206 204 203 202 202 202 203 204 204 204 204 204 205 205 207 208 210 212 212 212 213 214 216 219 221 222 223 224 224 223 222 222 224 227 230 231 231 231 234 238 240 243 245 246 247 246 246 247 248 250 250 250 252 254 258 258 255 251 252 253 253 252 249 247 246 246 245 245 245 246 246 246 246 247 247 248
197 197 200 204 205 205 205 205 207 207 207 209 210 208 206 203 203 203 203 202 203 203 204 205 206 206 208 209 210 212 212 212 213 214 215 215 217 219 221 223 223 222 222 222 223 225 228 232 232 231 234 235 236 237 238 239 240 240 240 241 241 243 245 246 249 251 253 253 250 247 250 249 250 252 249 244 243 243 243 242 242 243 244 245 245 245 246 247
199 198 200 203 207 209 207 206 207 207 205 206 209 210 210 207 205 205 205 203 202 203 204 204 205 206 208 210 212 214 214 213 213 215 216 216 216 216 217 221 222 222 222 222 223 225 227 231 232 232 234 236 237 239 239 240 241 242 242 242 241 243 245 248 251 251 253 254 251 251 252 247 248 253 250 244 243 243 243 243 242 242 243 244 247 247 246 246
201 201 202 203 205 209 209 206 205 204 203 204 206 209 211 211 209 208 207 205 203 203 203 204 206 207 208 210 212 215 216 217 217 218 219 220 221 219 218 220 221 223 223 223 224 226 228 232 234 234 236 237 238 240 241 242 244 245 245 244 245 247 250 252 254 254 256 257 255 258 257 249 248 256 254 248 245 244 244 244 244 244 244 244 246 248 247 246
202 202 203 205 205 207 210 210 208 206 204 204 205 207 209 210 211 211 210 208 207 207 206 205 206 207 210 211 213 214 215 217 219 222 225 227 229 230 228 227 225 225 226 226 226 227 229 233 235 238 240 240 241 243 245 246 247 247 246 245 246 250 254 256 257 259 261 262 261 260 256 249 254 262 260 256 251 247 246 246 247 248 246 245 246 247 247 247
201 199 200 204 206 205 206 209 209 209 209 209 209 209 209 209 210 211 211 209 208 209 210 210 209 209 210 212 213 214 214 215 216 219 222 225 228 230 231 231 230 228 226 226 227 228 230 233 236 239 242 243 243 244 246 247 248 247 246 245 247 252 256 258 260 261 263 264 263 259 253 256 266 266 261 258 256 251 249 249 249 250 250 250 250 249 249 249
Height
5644 5651 5657 5663 5671 5677 5681 5688 5695 5700 5705 5710 5717 5723 5728 5733 5737 5740 5744 5749 5753 5758 5762 5766 5769 5772 5776 5780 5783 5786 5789 5792 5795 5799 5802 5805 5807 5809 5812 5815 5818 5821 5825 5827 5829 5831 5833 5836 5839 5842 5845 5846 5849 5851 5853 5855 5856 5859 5862 5865 5867 5869 5872 5873 5876 5879 5881 5882 5883 5885 5886 5888 5889 5890 5892 5893 5894 5895 5897 5898 5899 5900 5901 5901 5902 5902 5903 5904
5637 5646 5652 5657 5665 5671 5676 5682 5689 5695 5700 5705 5711 5718 5724 5728 5732 5736 5740 5744 5749 5754 5758 5761 5765 5768 5772 5775 5779 5782 5786 5789 5792 5797 5800 5801 5804 5806 5809 5812 5815 5819 5822 5824 5826 5828 5831 5834 5837 5840 5842 5843 5846 5848 5850 5852 5854 5857 5861 5864 5866 5868 5869 5871 5875 5878 5880 5881 5883 5884 5885 5887 5888 5890 5891 5892 5894 5895 5897 5898 5899 5900 5901 5901 5902 5903 5903 5904
5633 5641 5647 5653 5660 5666 5671 5677 5683 5689 5694 5700 5706 5713 5719 5723 5728 5731 5735 5740 5745 5749 5754 5757 5760 5764 5767 5771 5775 5779 5782 5786 5790 5795 5796 5797 5801 5804 5807 5809 5812 5816 5819 5821 5824 5826 5829 5831 5833 5837 5840 5841 5843 5845 5848 5850 5852 5855 5858 5863 5865 5866 5867 5869 5873 5876 5878 5879 5881 5883 5884 5886 5888 5889 5891 5892 5893 5895 5896 5898 5899 5899 5900 5902 5903 5903 5903 5904
5626 5635 5642 5649 5655 5660 5667 5672 5678 5683 5688 5694 5701 5707 5714 5719 5723 5727 5731 5736 5740 5745 5749 5753 5756 5759 5763 5767 5771 5775 5779 5783 5788 5791 5791 5794 5797 5801 5804 5807 5810 5813 5815 5818 5822 5824 5826 5828 5831 5834 5837 5839 5840 5842 5846 5848 5850 5853 5856 5861 5862 5863 5865 5868 5871 5874 5875 5877 5879 5881 5883 5886 5887 5888 5890 5892 5893 5894 5896 5897 5898 5899 5900 5901 5903 5903 5904 5904
5616 5626 5635 5644 5649 5654 5661 5666 5672 5677 5682 5689 5696 5703 5709 5715 5719 5724 5728 5732 5736 5741 5745 5749 5752 5755 5758 5762 5767 5772 5775 5780 5785 5785 5787 5791 5794 5797 5800 5803 5806 5809 5811 5815 5819 5821 5823 5825 5828 5831 5834 5836 5837 5839 5843 5845 5848 5851 5854 5857 5858 5860 5864 5867 5870 5872 5874 5876 5878 5880 5883 5884 5886 5887 5889 5891 5892 5894 5895 5896 5897 5898 5900 5901 5902 5903 5903 5904
5610 5619 5629 5637 5642 5648 5654 5661 5666 5671 5678 5685 5692 5699 5705 5711 5715 5720 5725 5728 5732 5737 5741 5745 5748 5751 5754 5758 5763 5768 5772 5778 5780 5781 5784 5789 5791 5794 5797 5799 5802 5805 5808 5812 5816 5818 5821 5823 5825 5827 5830 5833 5834 5837 5840 5842 5845 5849 5852 5854 5855 5858 5863 5866 5869 5871 5873 5875 5876 5879 5882 5883 5884 5886 5888 5890 5892 5893 5894 5895 5896 5897 5898 5899 5900 5902 5902 5903
5603 5613 5623 5630 5636 5642 5648 5655 5660 5666 5673 5679 5686 5693 5700 5706 5711 5716 5721 5725 5729 5733 5737 5741 5744 5747 5751 5756 5760 5765 5770 5774 5776 5778 5782 5786 5788 5791 5793 5796 5799 5802 5805 5809 5812 5816 5819 5820 5821 5824 5827 5830 5832 5834 5836 5838 5842 5846 5850 5851 5852 5856 5861 5864 5867 5870 5871 5872 5874 5877 5880 5881 5882 5884 5887 5889 5890 5891 5893 5894 5894 5895 5897 5898 5899 5900 5901 5902
5596 5606 5615 5623 5630 5638 5644 5649 5655 5661 5667 5672 5679 5687 5694 5701 5706 5712 5717 5722 5726 5729 5734 5737 5741 5744 5749 5753 5757 5762 5767 5770 5772 5775 5778 5781 5785 5788 5791 5793 5796 5798 5802 5806 5809 5814 5817 5817 5818 5821 5824 5827 5829 5831 5832 5834 5838 5843 5847 5848 5849 5853 5857 5861 5864 5867 5869 5870 5872 5874 5877 5879 5881 5883 5885 5887 5889 5890 5892 5893 5893 5894 5895 5896 5897 5898 5900 5901
5590 5599 5608 5617 5625 5633 5638 5643 5651 5657 5661 5666 5674 5682 5689 5696 5702 5708 5713 5718 5723 5726 5730 5733 5737 5741 5746 5750 5754 5760 5764 5765 5768 5772 5775 5777 5781 5785 5788 5790 5793 5795 5799 5803 5806 5811 5815 5815 5815 5818 5821 5824 5826 5828 5830 5831 5834 5839 5843 5845 5846 5851 5854 5857 5860 5863 5865 5867 5869 5872 5874 5876 5879 5881 5883 5886 5888 5889 5891 5892 5892 5893 5893 5895 5896 5897 5898 5900
5584 5593 5601 5611 5620 5627 5633 5638 5646 5651 5656 5662 5670 5678 5684 5692 5698 5704 5709 5714 5719 5723 5726 5729 5733 5738 5743 5747 5752 5758 5760 5760 5764 5768 5771 5774 5778 5781 5784 5787 5790 5792 5795 5799 5803 5807 5811 5811 5812 5815 5818 5821 5823 5826 5827 5829 5831 5834 5839 5842 5844 5848 5852 5855 5858 5860 5862 5864 5866 5869 5871 5874 5876 5879 5882 5885 5886 5887 5889 5890 5891 5892 5892 5893 5895 5896 5897 5898
5578 5587 5596 5605 5612 5620 5628 5635 5642 5648 5653 5658 5666 5673 5679 5686 5693 5699 5705 5710 5715 5719 5722 5725 5730 5735 5740 5745 5751 5755 5755 5757 5761 5765 5768 5771 5774 5777 5780 5783 5787 5790 5793 5796 5800 5803 5807 5807 5809 5812 5816 5818 5820 5822 5824 5827 5830 5832 5834 5838 5842 5845 5850 5853 5855 5858 5859 5861 5864 5867 5869 5871 5874 5878 5880 5883 5883 5884 5886 5888 5889 5890 5890 5891 5893 5894 5895 5896
5573 5582 5591 5599 5606 5615 5623 5630 5637 5643 5649 5654 5661 5668 5673 5680 5688 5694 5701 5706 5712 5715 5718 5721 5726 5732 5736 5742 5748 5749 5750 5754 5757 5761 5766 5768 5771 5774 5777 5780 5784 5787 5790 5793 5796 5799 5803 5804 5807 5810 5813 5815 5817 5819 5822 5825 5828 5829 5830 5834 5838 5842 5847 5850 5852 5854 5856 5859 5862 5865 5866 5868 5873 5876 5877 5879 5880 5881 5884 5886 5887 5888 5889 5890 5892 5893 5894 5895
5567 5577 5586 5594 5600 5609 5618 5625 5631 5637 5643 5650 5656 5661 5667 5676 5684 5690 5697 5703 5708 5711 5714 5718 5723 5727 5733 5740 5744 5744 5747 5751 5754 5759 5762 5765 5769 5772 5774 5778 5781 5785 5787 5790 5792 5796 5799 5802 5805 5808 5809 5812 5814 5816 5819 5821 5824 5826 5828 5831 5835 5839 5843 5846 5848 5850 5853 5856 5859 5862 5864 5867 5871 5872 5873 5875 5876 5878 5881 5883 5885 5886 5887 5888 5890 5891 5892 5893
5562 5571 5580 5589 5595 5604 5613 5620 5626 5632 5638 5646 5651 5656 5663 5671 5679 5686 5693 5699 5703 5706 5710 5714 5719 5724 5730 5736 5738 5740 5744 5748 5752 5756 5759 5763 5767 5769 5772 5774 5778 5782 5784 5787 5790 5793 5796 5799 5802 5804 5807 5810 5812 5814 5816 5818 5821 5823 5825 5829 5833 5835 5839 5842 5844 5847 5850 5853 5856 5859 5861 5865 5868 5867 5869 5873 5875 5877 5879 5881 5883 5885 5886 5887 5888 5890 5891 5891
5556 5566 5575 5584 5591 5599 5609 5616 5621 5628 5635 5641 5646 5651 5659 5667 5674 5681 5688 5694 5698 5702 5706 5710 5715 5721 5726 5730 5733 5736 5741 5746 5750 5753 5756 5760 5763 5766 5768 5771 5774 5778 5781 5784 5787 5790 5793 5797 5799 5802 5805 5807 5809 5811 5813 5815 5818 5820 5822 5827 5830 5832 5835 5838 5841 5844 5847 5849 5852 5856 5859 5863 5864 5864 5867 5871 5873 5876 5877 5878 5881 5882 5884 5886 5887 5888 5889 5890
5550 5561 5570 5579 5586 5595 5605 5612 5617 5624 5631 5636 5641 5647 5655 5661 5668 5675 5682 5689 5693 5697 5703 5707 5711 5718 5723 5725 5729 5734 5739 5744 5747 5750 5754 5757 5760 5763 5765 5768 5771 5775 5778 5781 5783 5786 5790 5793 5796 5799 5802 5804 5806 5809 5810 5813 5815 5817 5820 5823 5827 5830 5832 5835 5837 5841 5844 5847 5849 5853 5857 5860 5861 5862 5865 5868 5871 5874 5875 5877 5878 5880 5882 5883 5884 5885 5887 5888
5543 5555 5565 5573 5582 5591 5600 5608 5614 5620 5626 5631 5637 5643 5650 5656 5662 5668 5675 5682 5687 5693 5700 5704 5708 5714 5717 5720 5727 5734 5739 5743 5745 5749 5752 5754 5758 5761 5763 5766 5768 5772 5775 5777 5780 5783 5786 5790 5793 5796 5799 5802 5804 5807 5809 5811 5813 5815 5817 5820 5823 5826 5829 5832 5835 5838 5841 5844 5847 5850 5854 5857 5858 5860 5863 5866 5868 5871 5873 5875 5876 5877 5879 5881 5882 5883 5885 5886
5538 5550 5560 5568 5578 5588 5596 5604 5611 5617 5622 5625 5631 5638 5644 5649 5655 5662 5668 5674 5680 5688 5693 5697 5702 5707 5711 5720 5729 5735 5738 5740 5743 5746 5749 5751 5754 5757 5760 5762 5765 5769 5772 5774 5777 5780 5783 5787 5790 5793 5796 5799 5802 5805 5807 5809 5810 5812 5814 5817 5821 5823 5826 5830 5832 5835 5838 5841 5844 5848 5852 5855 5856 5859 5861 5864 5866 5868 5870 5871 5873 5875 5877 5879 5880 5881 5883 5884
5532 5545 5556 5564 5575 5584 5592 5600 5606 5612 5617 5621 5626 5631 5635 5641 5648 5656 5662 5667 5673 5682 5689 5694 5702 5709 5717 5727 5731 5733 5735 5736 5738 5742 5745 5748 5751 5754 5757 5759 5762 5766 5769 5771 5774 5777 5781 5784 5787 5791 5795 5797 5800 5802 5804 5806 5808 5808 5811 5814 5817 5820 5823 5827 5829 5831 5835 5838 5840 5844 5849 5853 5855 5857 5860 5862 5863 5865 5866 5868 5870 5873 5875 5877 5878 5879 5881 5882
5526 5541 5552 5560 5571 5580 5588 5596 5601 5605 5609 5614 5617 5617 5621 5630 5637 5645 5655 5667 5679 5690 5698 5704 5709 5713 5719 5723 5723 5726 5728 5729 5734 5739 5742 5745 5748 5752 5755 5757 5760 5763 5766 5770 5772 5774 5777 5781 5785 5790 5792 5795 5797 5799 5801 5803 5804 5805 5808 5810 5813 5816 5820 5824 5827 5828 5831 5834 5838 5842 5847 5850 5852 5854 5857 5858 5859 5860 5863 5866 5869 5871 5873 5874 5876 5877 5878 5880
5522 5536 5547 5557 5567 5575 5583 5591 5596 5600 5603 5608 5611 5615 5625 5634 5639 5648 5661 5673 5683 5691 5697 5703 5705 5707 5712 5715 5718 5722 5724 5726 5731 5734 5738 5742 5746 5749 5751 5754 5758 5761 5765 5767 5769 5771 5774 5778 5783 5786 5788 5790 5793 5795 5797 5799 5801 5803 5805 5807 5810 5813 5816 5820 5823 5825 5828 5832 5836 5839 5843 5846 5848 5850 5853 5854 5855 5857 5861 5864 5867 5869 5870 5872 5873 5875 5876 5877
5518 5531 5544 5553 5562 5571 5579 5585 5591 5597 5602 5605 5610 5621 5633 5641 5650 5662 5669 5672 5676 5681 5687 5693 5696 5702 5709 5712 5716 5718 5719 5723 5727 5730 5734 5739 5743 5746 5749 5752 5756 5759 5761 5763 5766 5768 5772 5776 5780 5782 5784 5786 5788 5791 5793 5795 5798 5800 5803 5805 5808 5811 5813 5815 5818 5821 5825 5829 5833 5835 5838 5842 5844 5846 5848 5849 5851 5855 5858 5861 5864 5865 5867 5869 5871 5872 5873 5874
5514 5527 5540 5549 5558 5566 5574 5582 5588 5592 5597 5604 5612 5621 5630 5638 5650 5660 5664 5668 5669 5671 5678 5684 5689 5696 5702 5706 5711 5714 5716 5720 5725 5729 5733 5737 5741 5743 5746 5749 5752 5755 5757 5761 5764 5767 5770 5774 5776 5777 5780 5782 5784 5787 5790 5792 5795 5797 5800 5802 5805 5809 5811 5812 5815 5819 5821 5825 5828 5830 5833 5837 5840 5842 5844 5846 5849 5853 5855 5858 5860 5861 5864 5867 5868 5869 5870 5872
5510 5524 5536 5544 5554 5562 5571 5580 5585 5587 5595 5605 5612 5618 5625 5635 5645 5652 5657 5662 5664 5668 5676 5681 5685 5689 5695 5703 5709 5712 5715 5719 5724 5727 5731 5735 5737 5740 5744 5746 5748 5751 5755 5758 5761 5764 5768 5770 5772 5774 5776 5779 5781 5783 5786 5789 5792 5794 5797 5799 5802 5806 5808 5810 5813 5816 5819 5822 5825 5827 5828 5832 5837 5838 5841 5844 5847 5851 5853 5854 5857 5859 5861 5864 5865 5866 5868 5870
5507 5521 5531 5540 5548 5558 5569 5577 5580 5585 5593 5600 5605 5612 5621 5630 5639 5647 5652 5654 5658 5666 5672 5672 5675 5682 5690 5698 5703 5706 5711 5716 5720 5723 5727 5731 5734 5737 5740 5742 5745 5749 5752 5755 5757 5760 5764 5766 5768 5771 5773 5776 5778 5781 5784 5787 5789 5792 5794 5796 5799 5803 5805 5807 5810 5814 5817 5819 5822 5824 5824 5828 5834 5836 5839 5843 5844 5848 5850 5851 5854 5857 5858 5860 5861 5864 5866 5867
5505 5517 5527 5537 5545 5553 5563 5570 5575 5582 5588 5594 5602 5610 5618 5625 5632 5639 5645 5649 5653 5659 5664 5668 5672 5679 5687 5693 5696 5700 5705 5709 5714 5718 5722 5726 5730 5733 5736 5739 5744 5746 5748 5751 5753 5757 5761 5763 5766 5768 5770 5773 5775 5779 5781 5784 5786 5789 5792 5794 5796 5799 5802 5805 5808 5811 5814 5816 5818 5820 5820 5823 5829 5833 5836 5839 5839 5843 5846 5847 5850 5854 5855 5857 5859 5862 5863 5864
5503 5514 5524 5533 5539 5545 5554 5563 5570 5578 5585 5592 5599 5606 5613 5620 5626 5633 5638 5642 5645 5651 5659 5666 5671 5678 5685 5689 5692 5696 5700 5706 5709 5713 5717 5721 5725 5729 5733 5737 5741 5743 5745 5748 5751 5755 5758 5761 5763 5765 5767 5770 5773 5776 5778 5781 5784 5786 5790 5791 5792 5796 5800 5802 5805 5807 5810 5812 5814 5816 5817 5818 5824 5830 5832 5834 5836 5839 5842 5845 5848 5851 5853 5855 5857 5858 5859 5860
5501 5511 5522 5530 5538 5548 5557 5564 5570 5577 5585 5592 5596 5601 5609 5615 5621 5627 5630 5632 5637 5645 5654 5662 5669 5677 5681 5684 5688 5693 5700 5706 5706 5709 5714 5717 5721 5726 5730 5734 5737 5739 5742 5746 5750 5753 5755 5757 5760 5763 5765 5768 5771 5774 5776 5778 5781 5784 5787 5788 5789 5793 5796 5799 5801 5804 5807 5809 5811 5814 5815 5814 5819 5828 5829 5829 5833 5835 5839 5843 5845 5848 5850 5852 5853 5855 5856 5857
5499 5511 5522 5531 5540 5549 5557 5564 5571 5575 5580 5587 5590 5594 5603 5610 5615 5621 5624 5625 5632 5643 5651 5658 5665 5670 5675 5680 5685 5691 5698 5701 5703 5708 5711 5713 5718 5724 5727 5731 5734 5735 5739 5743 5746 5749 5751 5754 5758 5761 5764 5767 5770 5771 5773 5776 5779 5782 5784 5785 5787 5789 5792 5795 5797 5800 5803 5805 5808 5812 5813 5811 5814 5824 5827 5826 5829 5833 5837 5840 5842 5844 5847 5848 5850 5852 5853 5854
5499 5511 5521 5528 5533 5540 5549 5557 5564 5569 5575 5580 5585 5590 5596 5601 5607 5612 5613 5617 5628 5639 5646 5653 5661 5665 5670 5676 5683 5689 5693 5696 5700 5704 5707 5711 5717 5721 5724 5727 5729 5732 5737 5740 5742 5744 5748 5751 5754 5758 5761 5764 5766 5768 5771 5773 5775 5778 5780 5782 5784 5786 5789 5792 5794 5797 5799 5800 5805 5810 5810 5808 5809 5818 5824 5824 5827 5831 5834 5836 5837 5840 5843 5845 5847 5849 5850 5851
5499 5509 5518 5525 5532 5538 5544 5549 5555 5564 5571 5575 5580 5586 5589 5594 5600 5603 5605 5616 5628 5634 5639 5648 5656 5661 5666 5674 5681 5686 5690 5694 5697 5699 5703 5709 5714 5717 5720 5723 5726 5730 5734 5737 5739 5742 5745 5747 5750 5754 5757 5759 5761 5764 5767 5769 5772 5774 5776 5778 5781 5783 5785 5788 5789 5792 5794 5796 5803 5807 5807 5805 5803 5811 5821 5823 5824 5828 5830 5832 5835 5837 5839 5841 5844 5846 5847 5848
5497 5508 5519 5527 5534 5540 5545 5552 5558 5564 5569 5572 5576 5579 5584 5589 5592 5596 5604 5616 5622 5626 5636 5646 5653 5658 5666 5674 5681 5684 5687 5691 5694 5697 5702 5707 5710 5714 5718 5721 5725 5729 5732 5735 5738 5741 5743 5745 5748 5751 5753 5756 5758 5760 5763 5765 5767 5769 5772 5774 5777 5778 5780 5783 5784 5787 5791 5794 5799 5803 5803 5801 5799 5806 5817 5820 5821 5824 5827 5829 5832 5834 5836 5838 5840 5842 5843 5844
5498 5509 5519 5526 5531 5537 5544 5552 5557 5560 5564 5569 5571 5574 5580 5583 5585 5594 5606 5611 5617 5628 5641 5649 5654 5659 5664 5670 5674 5679 5685 5690 5692 5694 5699 5703 5706 5711 5714 5719 5723 5726 5730 5733 5735 5737 5739 5742 5745 5748 5750 5752 5754 5757 5759 5761 5763 5765 5767 5770 5772 5773 5775 5778 5780 5783 5787 5791 5795 5798 5798 5798 5798 5803 5813 5818 5819 5821 5823 5825 5828 5831 5833 5834 5836 5837 5839 5840
5499 5507 5515 5523 5529 5536 5541 5546 5551 5555 5558 5561 5566 5571 5575 5579 5586 5597 5605 5610 5620 5632 5639 5644 5650 5655 5659 5664 5670 5676 5682 5685 5688 5692 5694 5697 5702 5706 5711 5716 5720 5723 5727 5729 5731 5734 5737 5740 5743 5745 5747 5749 5751 5753 5756 5759 5762 5763 5766 5768 5770 5771 5773 5776 5778 5781 5785 5788 5791 5793 5793 5796 5798 5800 5808 5815 5816 5817 5819 5822 5825 5827 5829 5830 5831 5833 5834 5836
5498 5505 5513 5519 5525 5531 5537 5542 5547 5551 5551 5554 5562 5567 5569 5577 5588 5596 5601 5610 5619 5625 5632 5641 5645 5648 5653 5661 5667 5672 5676 5679 5684 5687 5691 5696 5700 5705 5710 5713 5716 5719 5722 5725 5727 5730 5733 5737 5740 5742 5744 5746 5748 5750 5753 5755 5757 5759 5762 5765 5766 5768 5771 5774 5776 5779 5782 5784 5785 5787 5788 5793 5796 5797 5803 5810 5812 5813 5815 5818 5821 5823 5824 5826 5827 5829 5830 5831
5496 5503 5510 5516 5521 5527 5533 5539 5543 5545 5548 5552 5557 5563 5571 5582 5590 5595 5602 5610 5615 5620 5627 5634 5637 5642 5649 5655 5661 5666 5672 5677 5681 5683 5688 5694 5698 5703 5707 5710 5713 5717 5720 5722 5724 5727 5729 5732 5736 5738 5740 5742 5744 5746 5749 5751 5753 5755 5757 5759 5762 5765 5768 5771 5774 5776 5778 5779 5780 5783 5786 5791 5793 5794 5799 5805 5808 5810 5812 5814 5817 5819 5820 5822 5824 5825 5826 5827
5492 5499 5506 5512 5518 5524 5530 5536 5538 5540 5546 5552 5557 5566 5577 5584 5588 5593 5599 5605 5611 5618 5622 5624 5629 5637 5644 5650 5657 5663 5669 5673 5677 5681 5686 5690 5694 5699 5703 5707 5711 5714 5717 5720 5722 5724 5727 5730 5732 5734 5736 5739 5741 5743 5746 5748 5750 5752 5754 5757 5760 5762 5764 5768 5770 5772 5774 5775 5776 5780 5783 5787 5789 5791 5796 5800 5803 5807 5808 5810 5812 5815 5817 5819 5820 5822 5822 5823
5490 5498 5504 5510 5517 5524 5528 5531 5533 5537 5543 5551 5561 5569 5573 5576 5582 5590 5595 5600 5607 5614 5619 5623 5629 5636 5642 5649 5655 5661 5665 5667 5671 5677 5681 5686 5691 5696 5700 5703 5707 5710 5713 5716 5718 5721 5724 5726 5729 5731 5733 5736 5738 5740 5743 5745 5747 5749 5752 5755 5757 5759 5761 5764 5765 5767 5769 5770 5772 5776 5779 5782 5785 5788 5793 5796 5799 5802 5804 5806 5808 5810 5813 5815 5816 5818 5819 5820
5489 5495 5500 5507 5515 5520 5523 5525 5529 5533 5539 5548 5558 5564 5567 5573 5582 5588 5593 5600 5606 5611 5617 5624 5631 5637 5641 5647 5652 5656 5660 5663 5668 5673 5677 5682 5688 5693 5696 5699 5702 5705 5708 5711 5714 5717 5720 5722 5724 5728 5730 5732 5734 5736 5739 5742 5744 5746 5749 5751 5753 5756 5758 5760 5762 5764 5766 5767 5769 5771 5773 5777 5782 5786 5790 5792 5795 5798 5800 5802 5804 5806 5809 5811 5812 5814 5814 5815
5487 5492 5497 5504 5510 5514 5518 5521 5523 5528 5539 5551 5557 5561 5569 5576 5580 5584 5590 5598 5604 5609 5616 5623 5630 5635 5639 5645 5649 5654 5658 5661 5665 5670 5675 5679 5684 5688 5692 5695 5698 5702 5705 5707 5709 5712 5715 5718 5721 5724 5726 5728 5730 5733 5736 5739 5741 5744 5745 5747 5750 5753 5755 5757 5759 5761 5762 5764 5765 5766 5767 5772 5778 5783 5787 5789 5791 5794 5796 5798 5800 5802 5804 5806 5808 5809 5810 5811
5483 5488 5492 5498 5504 5508 5512 5514 5519 5530 5542 5550 5554 5559 5566 5571 5575 5581 5589 5596 5602 5608 5616 5623 5628 5633 5637 5641 5645 5651 5656 5660 5664 5668 5673 5677 5681 5685 5689 5692 5695 5698 5700 5702 5705 5708 5711 5714 5716 5719 5722 5725 5728 5731 5734 5737 5739 5742 5743 5745 5748 5750 5752 5754 5755 5757 5759 5760 5761 5762 5763 5767 5775 5781 5784 5786 5788 5790 5792 5794 5796 5798 5799 5801 5803 5804 5805 5806
5479 5483 5488 5494 5499 5504 5509 5516 5526 5536 5541 5544 5550 5558 5562 5565 5572 5579 5585 5592 5599 5606 5614 5620 5625 5630 5635 5640 5644 5648 5652 5657 5662 5666 5670 5675 5679 5683 5687 5689 5692 5694 5696 5699 5702 5705 5709 5712 5714 5717 5720 5723 5726 5728 5731 5734 5736 5738 5740 5742 5744 5745 5747 5749 5751 5753 5756 5756 5758 5760 5759 5762 5771 5778 5780 5782 5784 5786 5788 5790 5792 5793 5795 5796 5798 5799 5800 5801
5475 5481 5488 5495 5499 5504 5511 5519 5526 5530 5534 5542 5548 5553 5557 5562 5569 5575 5581 5588 5594 5601 5609 5615 5621 5627 5632 5637 5641 5646 5650 5655 5659 5663 5668 5672 5675 5679 5682 5686 5688 5691 5693 5696 5699 5703 5706 5708 5711 5714 5717 5720 5722 5725 5728 5730 5732 5733 5735 5738 5739 5740 5743 5745 5747 5750 5751 5752 5755 5756 5754 5757 5767 5773 5775 5777 5779 5781 5783 5786 5787 5789 5790 5792 5793 5794 5796 5797
5472 5479 5486 5492 5495 5500 5507 5514 5520 5526 5533 5539 5543 5548 5555 5561 5565 5571 5578 5584 5591 5598 5605 5611 5617 5624 5629 5634 5639 5644 5649 5653 5657 5661 5665 5670 5673 5676 5679 5682 5685 5688 5691 5694 5697 5700 5702 5704 5707 5710 5712 5715 5718 5720 5722 5725 5727 5728 5730 5733 5734 5737 5740 5741 5743 5745 5745 5747 5751 5751 5750 5754 5762 5768 5771 5772 5775 5777 5779 5781 5783 5784 5786 5787 5788 5790 5791 5793
5467 5475 5481 5486 5491 5496 5505 5514 5521 5527 5531 5535 5541 5547 5553 5557 5563 5569 5575 5582 5589 5595 5602 5608 5614 5620 5625 5629 5634 5640 5645 5650 5654 5658 5661 5666 5670 5673 5676 5680 5684 5687 5690 5693 5695 5697 5699 5702 5704 5706 5708 5710 5713 5716 5720 5723 5724 5725 5728 5731 5733 5736 5737 5738 5740 5740 5741 5745 5746 5747 5749 5753 5758 5764 5767 5769 5772 5774 5775 5777 5779 5780 5781 5782 5783 5785 5787 5789
5462 5465 5470 5478 5486 5493 5503 5511 5517 5522 5526 5532 5538 5543 5547 5553 5559 5565 5572 5579 5585 5592 5599 5605 5610 5615 5619 5624 5628 5634 5639 5645 5649 5654 5658 5662 5665 5669 5672 5676 5680 5684 5687 5689 5691 5693 5695 5697 5700 5703 5705 5708 5712 5716 5720 5722 5723 5725 5728 5730 5731 5733 5734 5735 5735 5736 5740 5743 5742 5745 5750 5752 5755 5759 5762 5765 5768 5769 5770 5772 5773 5775 5776 5777 5779 5780 5782 5784
5459 5462 5467 5475 5483 5491 5499 5506 5512 5519 5527 5533 5536 5539 5544 5549 5554 5560 5566 5574 5581 5589 5596 5602 5606 5610 5614 5618 5624 5629 5635 5640 5644 5648 5653 5657 5661 5665 5668 5671 5674 5678 5682 5684 5686 5688 5690 5692 5696 5700 5702 5704 5708 5711 5714 5716 5718 5721 5723 5725 5727 5728 5729 5730 5730 5733 5738 5737 5736 5744 5748 5747 5749 5754 5757 5760 5763 5763 5765 5767 5767 5768 5769 5771 5773 5775 5776 5778
5457 5465 5474 5480 5486 5492 5499 5507 5514 5520 5526 5532 5536 5539 5542 5545 5550 5555 5561 5568 5577 5584 5591 5596 5601 5607 5612 5616 5621 5626 5630 5635 5640 5643 5647 5650 5655 5659 5662 5665 5668 5673 5677 5679 5681 5684 5686 5688 5693 5696 5698 5699 5702 5705 5708 5710 5712 5715 5716 5718 5721 5722 5723 5724 5726 5730 5732 5730 5733 5741 5743 5740 5744 5748 5752 5755 5756 5757 5758 5760 5760 5761 5763 5765 5766 5769 5771 5772
5458 5465 5472 5480 5487 5495 5502 5506 5511 5515 5520 5525 5530 5535 5540 5545 5549 5553 5558 5565 5572 5579 5585 5591 5597 5602 5608 5613 5618 5622 5626 5631 5635 5638 5642 5645 5649 5652 5656 5658 5662 5667 5671 5674 5677 5680 5682 5685 5688 5692 5693 5695 5698 5701 5704 5707 5708 5710 5712 5714 5715 5717 5719 5721 5724 5727 5727 5727 5731 5736 5735 5735 5739 5743 5746 5749 5750 5751 5753 5753 5754 5755 5758 5759 5760 5763 5765 5765
5457 5463 5470 5477 5485 5492 5497 5498 5502 5507 5512 5517 5523 5531 5538 5544 5549 5552 5557 5564 5569 5575 5581 5587 5594 5599 5604 5609 5614 5619 5625 5630 5634 5637 5640 5643 5646 5649 5652 5655 5659 5663 5667 5670 5673 5677 5680 5681 5684 5687 5688 5690 5694 5697 5700 5702 5704 5706 5707 5709 5711 5713 5715 5718 5721 5723 5722 5724 5729 5730 5729 5733 5738 5740 5742 5744 5745 5746 5746 5747 5749 5751 5753 5754 5755 5756 5758 5758
5457 5466 5473 5478 5482 5487 5493 5499 5504 5506 5508 5513 5520 5527 5533 5540 5547 5552 5558 5565 5572 5577 5581 5585 5591 5596 5601 5606 5611 5617 5623 5628 5633 5638 5641 5644 5648 5651 5653 5655 5658 5661 5664 5668 5671 5674 5677 5678 5681 5683 5684 5687 5691 5693 5695 5697 5699 5700 5701 5704 5707 5709 5711 5713 5716 5718 5718 5721 5725 5725 5725 5731 5736 5737 5738 5740 5740 5741 5742 5744 5746 5747 5748 5748 5749 5750 5751 5752
5455 5463 5469 5474 5479 5483 5490 5497 5501 5504 5510 5517 5522 5526 5531 5537 5544 5550 5557 5564 5571 5578 5584 5588 5591 5595 5599 5603 5609 5616 5621 5626 5630 5635 5637 5641 5644 5647 5650 5654 5656 5658 5662 5665 5669 5672 5674 5675 5678 5680 5681 5684 5687 5688 5690 5692 5692 5693 5698 5702 5704 5706 5707 5709 5711 5713 5715 5717 5719 5720 5723 5729 5731 5732 5734 5734 5733 5735 5738 5741 5741 5742 5743 5743 5744 5745 5745 5745